Regional Weather Roundup
Issued by NWS

Home | Current Version | Previous Version | Text Only | Print | Product List | Glossary On
Versions: 1 2 3 4 5 6 7 8 9 10 11 12 13 14 15 16 17 18 19 20 21 22 23 24 25 26 27 28 29 30 31 32 33 34 35 36 37 38 39 40 41 42 43 44 45 46 47 48 49 50
000
ASUS43 KLMK 282102
RWRKY
KENTUCKY REGIONAL WEATHER ROUNDUP
NATIONAL WEATHER SERVICE LOUISVILLE KY
400 PM EST SAT FEB 28 2015

NOTE "FAIR" INDICATES FEW OR NO CLOUDS BELOW 12,000 FEET
WITH NO SIGNIFICANT WEATHER AND/OR OBSTRUCTIONS TO VISIBILITY.

KYZ001>023-026-027-061>063-070>075-282200-
WESTERN AND SOUTH CENTRAL KENTUCKY

CITY           SKY/WX    TMP DP  RH WIND       PRES   REMARKS
PADUCAH        CLOUDY    34  16  47 NE7       30.47F WCI  28
HENDERSON      CLOUDY    34  16  47 E7        30.51F WCI  28
OWENSBORO      CLOUDY    37  14  39 E10       30.50F WCI  30
HOPKINSVILLE   CLOUDY    35  21  56 E10       30.48F WCI  27
BOWLING GREEN  PTSUNNY   39  20  46 NE9       30.50F WCI  33
GLASGOW        NOT AVBL
$$

KYZ024-025-028>034-038-045-046-053-282200-
NORTH CENTRAL KENTUCKY

CITY           SKY/WX    TMP DP  RH WIND       PRES   REMARKS
LOUISVILLE/SDF CLOUDY    35  13  40 SE7       30.54F WCI  29
LOUISVILLE/LOU CLOUDY    35  12  38 NE9       30.55F WCI  28
FORT KNOX      CLOUDY    36  14  41 NE9       30.49F WCI  29
$$

KYZ035>037-039>044-047>052-055>060-089>105-282200-
NORTHEAST KENTUCKY

CITY           SKY/WX    TMP DP  RH WIND       PRES   REMARKS
LEXINGTON      CLOUDY    33  15  47 E6        30.54F WCI  28
COVINGTON      PTSUNNY   28   8  43 E9        30.56F WCI  19
FRANKFORT        N/A     31  14  49 E9        30.54F WCI  23
$$

KYZ054-064>069-076>088-106>120-282200-
SOUTHEAST KENTUCKY

CITY           SKY/WX    TMP DP  RH WIND       PRES   REMARKS
JACKSON        CLOUDY    40  15  36 E3        30.52F
LONDON         CLOUDY    42  17  36 NE3       30.50F
SOMERSET       NOT AVBL
MIDDLESBORO    PTSUNNY   45  23  42 E3        30.51F
MONTICELLO     MOCLDY    43  24  47 NE8       30.51F
$$



USA.gov is the U.S. government's official web portal to all federal, state and local government web resources and services.